Wind_Speed
20 20 19 19 18 16 15 15 14 13 12 12 12 11 11 11 11 11 11 11 11 12 12 13 14 14 15 15 15 15 16 16 17 17 18 18 19 20 20 21 21 22 22
19 19 19 19 18 17 15 15 14 13 13 13 13 13 13 13 13 13 13 13 14 14 15 15 15 15 15 16 16 17 17 17 18 18 19 20 20 21 22 22 23 23 24
18 19 19 18 18 17 16 15 15 14 14 14 14 15 15 15 15 15 15 16 16 16 16 17 17 16 17 17 18 18 18 19 19 20 20 21 22 23 23 24 24 25 25
18 19 19 19 18 17 16 16 15 15 15 15 15 16 16 16 17 17 17 18 18 18 18 18 18 18 19 19 20 20 20 20 21 22 22 23 24 25 25 26 27 27 28
16 18 19 20 19 18 17 17 17 16 17 16 16 17 18 18 18 19 19 19 20 20 20 20 20 20 21 21 22 22 22 23 24 24 25 26 27 27 28 28 29 30 30
17 17 18 18 19 19 18 18 18 17 17 17 17 18 19 20 20 20 21 21 21 22 22 22 22 22 22 23 23 24 24 25 26 27 28 29 29 30 30 30 31 31 32
17 17 17 17 17 17 17 17 17 18 18 18 19 19 20 21 22 22 23 23 23 23 23 23 24 24 24 25 25 26 26 27 28 30 30 31 31 32 32 33 34 34 34
17 17 17 17 17 17 18 18 18 19 19 20 20 21 22 23 23 24 24 25 25 25 25 25 26 26 27 27 28 29 30 31 32 33 33 33 33 34 34 35 36 36 36
18 19 19 19 19 19 20 20 20 21 21 21 22 23 24 25 25 25 26 26 27 27 27 28 28 28 29 30 31 32 33 34 35 36 36 36 36 37 37 38 38 38 38
19 19 20 20 21 21 21 21 22 22 23 24 24 24 25 26 26 27 28 28 28 29 29 30 30 31 32 33 33 34 35 36 37 38 38 38 39 40 41 41 41 41 41
21 21 21 22 22 23 23 23 23 24 24 25 25 26 27 27 28 29 29 30 30 31 32 32 33 34 35 36 36 37 38 39 39 40 40 41 42 42 43 44 44 44 44
21 22 22 23 24 24 24 25 25 25 26 26 27 28 29 30 30 30 31 32 32 33 34 35 36 36 37 38 39 40 41 42 42 42 43 43 44 45 45 46 47 47 48
22 23 23 24 25 26 26 27 26 27 28 28 29 30 31 32 32 33 33 34 34 35 36 37 38 39 40 41 42 44 44 45 45 45 46 46 47 48 48 49 49 50 49
24 24 25 26 25 26 27 27 27 28 29 30 31 32 33 34 34 35 35 36 36 37 38 40 41 42 43 43 45 46 46 46 47 48 48 49 50 50 51 52 52 52 52
24 24 25 25 26 26 27 29 30 30 31 31 32 33 34 35 36 37 37 38 38 40 40 42 44 45 45 45 45 46 47 48 50 51 51 52 53 53 53 53 53 53 53
26 26 27 28 28 29 29 30 31 31 31 31 32 34 35 36 38 38 38 39 41 42 42 43 44 45 45 46 47 48 50 51 51 52 53 54 54 54 53 53 53 52 52
27 28 28 29 29 30 31 31 31 31 32 33 33 34 35 37 37 38 39 40 42 43 44 44 45 46 48 49 50 51 52 52 53 54 54 54 54 53 52 51 51 51 50
29 29 30 30 30 31 31 31 32 32 33 34 34 35 36 36 38 39 41 42 43 44 45 46 47 48 49 50 51 52 52 52 52 53 53 52 52 51 51 50 49 49 49
30 30 30 31 32 32 32 33 33 34 35 36 37 38 38 39 40 42 44 44 45 46 46 47 48 49 51 51 52 52 52 52 53 52 51 51 50 50 49 49 49 48 48
30 31 32 32 33 33 33 34 35 36 37 38 39 40 41 42 42 44 45 45 46 46 47 49 50 50 52 53 53 52 52 52 52 51 50 50 49 49 49 49 48 48 47
30 30 31 32 33 34 35 35 36 37 38 39 40 41 42 43 44 44 45 46 47 48 49 49 50 51 52 52 51 51 50 51 51 50 49 49 49 49 48 48 47 46 45
31 31 32 33 34 35 36 37 38 38 38 40 41 42 42 43 44 46 47 48 48 48 49 49 49 49 49 49 50 49 50 50 50 49 49 48 47 47 47 46 45 44 43
32 32 33 34 35 36 37 37 38 39 41 42 43 43 44 44 45 47 47 48 48 48 48 49 49 49 49 49 50 49 49 49 49 49 48 46 46 45 44 43 42 40 39
33 34 35 36 37 37 37 38 39 40 40 41 42 43 43 45 45 46 47 47 48 48 49 49 49 49 48 48 48 48 49 49 48 47 45 44 43 42 41 39 38 37 36
34 35 36 36 37 38 39 39 40 41 42 43 43 44 45 45 46 46 47 47 47 47 48 47 47 47 47 47 47 47 47 46 45 43 42 40 39 38 37 36 34 33 32
33 34 35 37 38 38 39 40 40 41 42 43 44 45 45 45 45 46 47 47 46 46 46 45 45 45 45 44 44 44 43 42 41 40 38 37 36 35 34 32 30 29 28
Wind_Direction
191 192 194 197 200 203 206 209 212 217 223 228 230 235 243 250 258 265 271 277 282 287 290 293 295 297 299 301 303 304 304 302 303 303 302 301 301 300 300 298 295 292 290
196 198 199 204 207 211 212 215 220 227 234 237 238 244 249 255 261 267 273 278 282 286 289 291 293 295 297 299 301 302 303 303 303 303 302 301 300 299 298 298 296 294 292
200 202 205 209 211 214 218 223 229 236 240 244 245 250 255 259 263 268 275 278 282 285 287 289 292 295 297 298 300 301 302 302 303 303 302 300 299 298 297 296 295 294 293
204 207 210 212 214 219 224 230 236 239 244 249 251 254 259 263 266 270 275 278 281 284 287 289 291 294 296 298 299 299 300 301 303 304 303 301 298 297 295 295 294 294 293
208 211 214 216 219 223 229 234 239 243 248 253 255 259 263 267 270 272 275 279 282 285 287 289 290 293 295 296 297 298 299 299 301 302 303 302 300 297 296 295 294 293 293
216 217 218 220 225 229 234 239 242 246 251 255 259 263 267 270 271 273 276 281 283 285 286 288 289 291 293 294 295 296 297 298 299 301 301 301 300 298 296 295 295 294 293
220 222 223 226 229 232 237 242 245 249 253 259 262 266 270 272 273 275 277 281 283 284 286 286 288 289 291 291 292 294 295 297 298 299 299 299 299 298 296 295 295 295 294
226 227 229 231 233 237 241 245 248 252 257 262 265 269 272 273 275 276 278 280 282 283 284 285 286 287 289 290 291 293 294 296 296 297 297 297 297 297 296 296 295 294 294
231 233 234 236 239 242 246 250 254 258 261 264 267 270 273 275 276 278 280 281 282 282 282 284 285 285 287 290 292 293 295 295 296 297 298 297 297 296 296 295 294 293 293
235 235 238 241 244 247 251 254 259 262 265 266 269 271 274 275 277 279 281 282 282 282 282 284 284 285 288 290 291 293 294 294 295 296 297 297 296 296 295 295 295 294 293
239 241 244 247 249 252 255 259 262 265 268 268 271 273 274 275 278 281 281 282 282 283 284 284 285 286 287 289 290 291 293 294 294 295 295 295 295 295 295 295 295 295 293
246 248 251 252 254 256 259 260 263 266 269 270 272 274 276 277 279 280 280 281 282 283 284 285 286 287 287 288 289 291 292 293 293 293 294 294 294 295 294 294 294 295 294
250 252 254 256 257 259 261 262 264 268 269 271 273 274 276 277 279 279 280 282 283 283 285 286 287 288 289 290 290 292 292 293 293 294 294 294 294 294 294 294 294 294 294
253 255 256 260 263 263 262 265 269 272 273 275 276 276 276 278 279 280 281 282 284 285 285 287 287 288 288 289 291 292 293 294 294 295 295 295 295 294 294 294 293 293 293
255 259 261 262 265 267 267 269 271 272 273 275 277 278 280 280 280 281 282 282 283 284 285 287 288 288 289 290 291 292 292 293 294 294 295 295 295 295 294 294 294 294 293
257 260 263 265 267 269 271 273 274 275 275 277 277 278 279 280 279 280 282 283 284 285 286 287 288 288 289 290 290 291 292 293 294 295 295 296 296 296 295 294 294 294 294
260 262 264 268 270 273 275 276 277 278 279 279 279 281 282 282 281 283 284 285 285 287 287 288 288 289 290 290 291 291 292 293 295 296 297 297 296 296 295 294 294 294 294
262 264 267 270 271 274 276 277 278 280 281 281 281 283 284 284 284 285 286 285 286 288 288 288 289 289 290 291 292 293 294 295 296 297 297 296 296 296 295 294 294 294 294
263 266 269 272 274 275 276 276 278 279 280 281 281 283 284 285 285 285 287 288 288 289 289 290 290 291 292 292 293 294 295 295 296 297 297 296 296 296 295 295 294 294 294
266 269 271 273 275 276 277 279 281 281 280 280 281 282 284 285 286 288 289 290 290 290 291 291 292 293 292 292 293 294 295 295 296 297 297 296 296 296 295 295 295 295 294
269 271 274 276 277 278 279 280 280 280 281 281 282 284 285 286 287 289 290 290 291 291 292 292 293 293 294 294 295 295 296 296 296 296 296 295 295 296 296 296 295 295 294
270 273 276 279 280 280 280 280 280 282 282 283 285 286 286 286 288 289 290 290 291 292 293 293 293 294 295 296 295 295 296 297 296 297 297 297 296 296 296 296 296 295 295
274 276 279 281 281 281 282 283 284 284 284 285 285 285 286 287 289 290 290 290 291 292 292 292 293 294 294 294 295 295 296 297 297 297 298 297 297 296 297 297 297 296 296
277 278 279 281 283 284 285 285 286 285 286 287 288 289 289 289 289 290 290 291 291 291 293 294 294 294 293 293 294 295 297 298 298 298 298 298 297 297 298 298 297 297 296
280 280 280 282 284 285 286 287 288 288 288 289 291 292 293 293 292 292 291 292 293 294 295 295 295 294 294 295 295 295 296 297 298 298 299 299 299 298 298 298 297 297 296
283 283 283 285 286 287 288 288 289 290 290 291 291 292 293 293 293 294 294 294 295 295 295 295 295 296 297 297 297 297 298 299 299 299 300 300 300 299 298 297 297 296 296
Height
5829 5833 5836 5840 5843 5846 5849 5851 5853 5855 5857 5858 5859 5861 5861 5862 5863 5863 5863 5863 5863 5862 5861 5860 5859 5858 5857 5855 5854 5852 5850 5849 5847 5846 5844 5842 5840 5838 5837 5835 5833 5832 5831
5828 5832 5835 5838 5841 5844 5847 5849 5851 5853 5854 5855 5857 5858 5859 5860 5860 5860 5860 5860 5860 5859 5858 5857 5856 5855 5853 5852 5850 5849 5847 5845 5843 5841 5839 5837 5836 5834 5832 5830 5828 5826 5825
5827 5830 5834 5837 5839 5842 5845 5847 5848 5850 5851 5853 5854 5855 5856 5856 5857 5857 5857 5856 5856 5855 5854 5853 5852 5851 5849 5848 5846 5844 5843 5841 5839 5837 5835 5832 5830 5828 5826 5824 5823 5821 5819
5826 5829 5832 5835 5837 5840 5842 5844 5845 5847 5848 5849 5851 5852 5852 5853 5853 5853 5853 5852 5852 5851 5850 5849 5847 5846 5845 5843 5841 5840 5838 5836 5834 5831 5829 5827 5825 5822 5820 5818 5816 5814 5812
5824 5827 5829 5832 5835 5837 5839 5840 5842 5843 5845 5846 5847 5848 5849 5849 5849 5849 5849 5848 5847 5846 5845 5844 5842 5841 5840 5838 5836 5834 5832 5830 5828 5826 5823 5821 5818 5816 5814 5811 5809 5807 5805
5823 5825 5827 5829 5831 5833 5835 5837 5838 5840 5841 5842 5843 5844 5844 5844 5844 5844 5844 5843 5842 5841 5840 5838 5837 5835 5834 5832 5830 5828 5826 5824 5822 5820 5817 5814 5812 5809 5806 5804 5801 5799 5797
5820 5822 5824 5826 5828 5830 5831 5833 5834 5836 5837 5838 5839 5839 5839 5839 5839 5839 5838 5837 5836 5835 5834 5832 5831 5829 5828 5826 5824 5822 5819 5817 5815 5812 5810 5807 5804 5801 5798 5795 5792 5790 5787
5817 5819 5821 5822 5824 5826 5828 5829 5830 5831 5832 5833 5833 5834 5834 5833 5833 5832 5832 5831 5830 5829 5827 5826 5824 5823 5821 5819 5817 5815 5812 5810 5807 5804 5801 5798 5795 5792 5789 5786 5783 5780 5778
5813 5815 5817 5819 5820 5822 5823 5824 5825 5826 5827 5827 5827 5827 5827 5827 5826 5826 5825 5824 5823 5821 5820 5819 5817 5815 5813 5811 5809 5807 5804 5801 5798 5795 5792 5789 5785 5782 5778 5775 5772 5770 5768
5809 5811 5812 5814 5816 5817 5818 5819 5820 5820 5821 5821 5821 5821 5820 5820 5820 5819 5818 5817 5815 5814 5813 5811 5809 5807 5805 5803 5801 5798 5795 5792 5789 5786 5782 5779 5775 5771 5768 5764 5761 5758 5755
5804 5806 5808 5809 5810 5811 5812 5813 5814 5814 5814 5814 5814 5814 5813 5813 5812 5811 5810 5809 5808 5806 5805 5803 5801 5798 5796 5794 5791 5788 5785 5782 5779 5775 5772 5768 5764 5760 5756 5752 5749 5745 5742
5799 5801 5803 5803 5804 5805 5806 5807 5807 5808 5808 5807 5807 5807 5806 5805 5804 5803 5802 5800 5799 5798 5796 5793 5791 5789 5786 5783 5781 5778 5774 5771 5768 5764 5760 5757 5752 5748 5744 5740 5736 5732 5728
5795 5796 5797 5797 5798 5798 5798 5799 5800 5800 5800 5800 5799 5799 5798 5797 5795 5794 5793 5791 5790 5788 5786 5783 5781 5778 5775 5772 5769 5766 5763 5759 5756 5752 5748 5744 5740 5736 5731 5727 5722 5718 5714
5789 5790 5791 5791 5791 5791 5792 5792 5792 5792 5792 5791 5791 5790 5788 5787 5786 5785 5783 5782 5780 5778 5776 5773 5770 5767 5764 5761 5757 5754 5750 5747 5743 5739 5735 5731 5726 5721 5717 5712 5708 5704 5700
5783 5784 5784 5784 5784 5784 5784 5784 5784 5784 5783 5783 5781 5780 5780 5778 5776 5775 5773 5771 5769 5767 5764 5762 5759 5755 5752 5749 5745 5741 5737 5733 5729 5725 5721 5716 5711 5707 5702 5697 5693 5689 5685
5776 5777 5777 5777 5777 5776 5776 5775 5775 5775 5774 5773 5772 5771 5770 5768 5766 5765 5763 5761 5758 5756 5753 5750 5747 5743 5739 5736 5732 5728 5724 5719 5715 5710 5706 5701 5696 5691 5687 5682 5677 5673 5669
5769 5769 5769 5769 5768 5768 5767 5767 5766 5766 5765 5764 5762 5761 5759 5757 5755 5754 5751 5749 5747 5744 5741 5738 5734 5730 5726 5722 5718 5714 5710 5705 5701 5696 5691 5685 5680 5676 5671 5667 5662 5658 5654
5762 5762 5761 5761 5761 5760 5759 5758 5758 5757 5756 5754 5753 5751 5749 5747 5745 5743 5740 5737 5734 5731 5728 5724 5721 5717 5713 5709 5704 5700 5695 5691 5685 5680 5675 5670 5665 5661 5656 5652 5648 5643 5639
5754 5753 5753 5753 5752 5751 5751 5749 5748 5747 5745 5744 5742 5740 5738 5736 5734 5732 5728 5725 5722 5718 5714 5711 5707 5703 5699 5695 5690 5685 5680 5676 5670 5665 5660 5655 5651 5646 5642 5637 5633 5629 5625
5745 5745 5744 5744 5743 5742 5741 5740 5738 5736 5735 5733 5731 5729 5727 5725 5722 5719 5715 5712 5708 5705 5701 5697 5693 5689 5685 5680 5675 5670 5666 5661 5656 5651 5646 5641 5636 5632 5628 5623 5619 5615 5611
5737 5736 5736 5735 5733 5732 5731 5729 5728 5726 5724 5722 5720 5718 5715 5713 5709 5706 5703 5699 5696 5692 5688 5683 5679 5675 5670 5665 5660 5656 5651 5646 5641 5636 5631 5627 5622 5618 5613 5609 5605 5601 5597
5728 5727 5726 5725 5724 5722 5720 5719 5717 5715 5714 5712 5709 5706 5703 5700 5697 5693 5690 5686 5682 5678 5674 5670 5665 5660 5656 5651 5647 5642 5637 5633 5627 5622 5617 5612 5608 5603 5599 5595 5591 5587 5584
5719 5718 5717 5715 5714 5712 5710 5709 5706 5704 5702 5699 5696 5693 5690 5687 5684 5680 5676 5672 5668 5664 5659 5655 5651 5646 5642 5637 5633 5628 5624 5619 5613 5608 5603 5599 5594 5590 5586 5582 5578 5575 5572
5709 5708 5706 5705 5703 5701 5699 5697 5695 5693 5690 5687 5684 5681 5677 5674 5670 5666 5662 5658 5654 5649 5645 5641 5636 5632 5628 5623 5619 5614 5609 5604 5600 5595 5590 5586 5582 5578 5574 5570 5567 5564 5561
5699 5698 5696 5695 5693 5691 5688 5686 5684 5681 5678 5675 5671 5668 5665 5661 5657 5653 5648 5644 5640 5635 5631 5627 5622 5618 5614 5610 5605 5601 5596 5591 5587 5582 5578 5574 5570 5567 5563 5560 5557 5554 5551
5689 5687 5686 5684 5682 5679 5677 5674 5671 5668 5665 5662 5659 5655 5652 5648 5643 5639 5635 5630 5626 5622 5617 5613 5609 5605 5600 5596 5592 5587 5583 5579 5575 5570 5567 5563 5560 5556 5553 5550 5547 5545 5542